Time,TemperatureF,DewpointF,PressureIn,WindDirection,WindDirectionDegrees,WindSpeedMPH,WindSpeedGustMPH,Humidity,HourlyPrecipIn,Conditions,Clouds,dailyrainin,SoftwareType,DateUTC
2013-07-20 00:00:00,76.1,72.6,29.96,SSE,153,0.0,2.0,89,0.00,,---,0.00,VWS V14.01,2013-07-20 04:00:00,
2013-07-20 00:04:00,76.0,72.5,29.95,SSE,153,0.0,2.0,89,0.00,,---,0.00,VWS V14.01,2013-07-20 04:04:00,
2013-07-20 00:05:00,76.0,72.5,29.95,SSE,153,0.0,2.0,89,0.00,,---,0.00,VWS V14.01,2013-07-20 04:05:00,
2013-07-20 00:09:00,75.9,72.8,29.96,SSE,153,0.0,1.0,90,0.00,,---,0.00,VWS V14.01,2013-07-20 04:09:00,
2013-07-20 00:10:00,75.9,72.8,29.96,SSE,153,0.0,1.0,90,0.00,,---,0.00,VWS V14.01,2013-07-20 04:10:00,
2013-07-20 00:14:00,75.6,72.8,29.95,SSE,153,0.0,2.0,91,0.00,,---,0.00,VWS V14.01,2013-07-20 04:14:00,
2013-07-20 00:15:00,75.6,72.8,29.95,SSE,153,0.0,2.0,91,0.00,,---,0.00,VWS V14.01,2013-07-20 04:15:00,
2013-07-20 00:19:00,75.5,72.7,29.96,SSE,153,0.0,1.0,91,0.00,,---,0.00,VWS V14.01,2013-07-20 04:19:00,
2013-07-20 00:20:00,75.5,72.7,29.96,SSE,153,0.0,1.0,91,0.00,,---,0.00,VWS V14.01,2013-07-20 04:20:00,
2013-07-20 00:24:00,75.5,72.7,29.95,SSE,153,0.0,0.0,91,0.00,,---,0.00,VWS V14.01,2013-07-20 04:24:00,
2013-07-20 00:25:00,75.5,72.7,29.95,SSE,153,0.0,0.0,91,0.00,,---,0.00,VWS V14.01,2013-07-20 04:25:00,
2013-07-20 00:29:00,75.6,72.8,29.95,SSE,153,0.0,2.0,91,0.00,,---,0.00,VWS V14.01,2013-07-20 04:29:00,
2013-07-20 00:30:00,75.6,72.8,29.95,SSE,153,0.0,2.0,91,0.00,,---,0.00,VWS V14.01,2013-07-20 04:30:00,
2013-07-20 00:34:00,75.6,72.5,29.94,SSE,153,0.0,2.0,90,0.00,,---,0.00,VWS V14.01,2013-07-20 04:34:00,
2013-07-20 00:35:00,75.6,72.5,29.94,SSE,153,0.0,2.0,90,0.00,,---,0.00,VWS V14.01,2013-07-20 04:35:00,
2013-07-20 00:39:00,75.5,72.7,29.94,SSE,153,0.0,1.0,91,0.00,,---,0.00,VWS V14.01,2013-07-20 04:39:00,
2013-07-20 00:40:00,75.5,72.7,29.94,SSE,153,0.0,1.0,91,0.00,,---,0.00,VWS V14.01,2013-07-20 04:40:00,
2013-07-20 00:44:00,75.6,72.8,29.94,SSE,153,0.0,1.0,91,0.00,,---,0.00,VWS V14.01,2013-07-20 04:44:00,
2013-07-20 00:45:00,75.6,72.8,29.94,SSE,153,0.0,1.0,91,0.00,,---,0.00,VWS V14.01,2013-07-20 04:45:00,
2013-07-20 00:49:00,75.6,72.8,29.94,SSE,153,2.0,2.0,91,0.00,,---,0.00,VWS V14.01,2013-07-20 04:49:00,
2013-07-20 00:50:00,75.6,72.8,29.94,SSE,153,2.0,2.0,91,0.00,,---,0.00,VWS V14.01,2013-07-20 04:50:00,
2013-07-20 00:54:00,75.5,72.4,29.94,SSE,153,1.0,2.0,90,0.00,,---,0.00,VWS V14.01,2013-07-20 04:54:00,
2013-07-20 00:55:00,75.5,72.4,29.94,SSE,153,1.0,2.0,90,0.00,,---,0.00,VWS V14.01,2013-07-20 04:55:00,
2013-07-20 00:59:00,75.3,72.5,29.94,SSE,153,0.0,1.0,91,0.00,,---,0.00,VWS V14.01,2013-07-20 04:59:00,
2013-07-20 01:00:00,75.3,72.5,29.94,SSE,153,0.0,1.0,91,0.00,,---,0.00,VWS V14.01,2013-07-20 05:00:00,
2013-07-20 01:04:00,75.3,72.5,29.94,SSE,153,0.0,4.0,91,0.00,,---,0.00,VWS V14.01,2013-07-20 05:04:00,
2013-07-20 01:05:00,75.3,72.5,29.94,SSE,153,0.0,4.0,91,0.00,,---,0.00,VWS V14.01,2013-07-20 05:05:00,
2013-07-20 01:09:00,75.1,72.6,29.94,SSE,153,0.0,1.0,92,0.00,,---,0.00,VWS V14.01,2013-07-20 05:09:00,
2013-07-20 01:10:00,75.1,72.6,29.94,SSE,153,0.0,1.0,92,0.00,,---,0.00,VWS V14.01,2013-07-20 05:10:00,
2013-07-20 01:14:00,75.1,72.6,29.93,SSE,153,1.0,2.0,92,0.00,,---,0.00,VWS V14.01,2013-07-20 05:14:00,
2013-07-20 01:15:00,75.1,72.6,29.93,SSE,153,1.0,2.0,92,0.00,,---,0.00,VWS V14.01,2013-07-20 05:15:00,
2013-07-20 01:19:00,74.9,72.4,29.93,SSE,153,0.0,1.0,92,0.00,,---,0.00,VWS V14.01,2013-07-20 05:19:00,
2013-07-20 01:20:00,74.9,72.4,29.93,SSE,153,0.0,1.0,92,0.00,,---,0.00,VWS V14.01,2013-07-20 05:20:00,
2013-07-20 01:24:00,74.6,72.4,29.94,SSE,153,0.0,0.0,93,0.00,,---,0.00,VWS V14.01,2013-07-20 05:24:00,
2013-07-20 01:25:00,74.6,72.4,29.94,SSE,153,0.0,0.0,93,0.00,,---,0.00,VWS V14.01,2013-07-20 05:25:00,
2013-07-20 01:29:00,74.5,72.7,29.94,SSE,153,0.0,0.0,94,0.00,,---,0.00,VWS V14.01,2013-07-20 05:29:00,
2013-07-20 01:30:00,74.5,72.7,29.94,SSE,153,0.0,0.0,94,0.00,,---,0.00,VWS V14.01,2013-07-20 05:30:00,
2013-07-20 01:34:00,74.6,72.4,29.94,SSE,153,0.0,2.0,93,0.00,,---,0.00,VWS V14.01,2013-07-20 05:34:00,
2013-07-20 01:35:00,74.6,72.4,29.94,SSE,153,0.0,2.0,93,0.00,,---,0.00,VWS V14.01,2013-07-20 05:35:00,
2013-07-20 01:39:00,74.9,72.4,29.94,West,261,2.0,4.0,92,0.00,,---,0.00,VWS V14.01,2013-07-20 05:39:00,
2013-07-20 01:40:00,74.9,72.4,29.94,West,261,2.0,4.0,92,0.00,,---,0.00,VWS V14.01,2013-07-20 05:40:00,
2013-07-20 01:44:00,75.5,72.7,29.93,West,260,3.0,4.0,91,0.00,,---,0.00,VWS V14.01,2013-07-20 05:44:00,
2013-07-20 01:45:00,75.5,72.7,29.93,West,260,3.0,4.0,91,0.00,,---,0.00,VWS V14.01,2013-07-20 05:45:00,
2013-07-20 01:49:00,76.0,72.9,29.93,WSW,242,3.0,4.0,90,0.00,,---,0.00,VWS V14.01,2013-07-20 05:49:00,
2013-07-20 01:50:00,76.0,72.9,29.93,WSW,242,3.0,4.0,90,0.00,,---,0.00,VWS V14.01,2013-07-20 05:50:00,
2013-07-20 01:54:00,76.3,72.8,29.93,West,270,0.0,5.0,89,0.00,,---,0.00,VWS V14.01,2013-07-20 05:54:00,
2013-07-20 01:55:00,76.3,72.8,29.93,West,270,0.0,5.0,89,0.00,,---,0.00,VWS V14.01,2013-07-20 05:55:00,
2013-07-20 01:59:00,76.4,72.9,29.93,WSW,249,3.0,6.0,89,0.00,,---,0.00,VWS V14.01,2013-07-20 05:59:00,
2013-07-20 02:00:00,76.4,72.9,29.93,WSW,249,3.0,6.0,89,0.00,,---,0.00,VWS V14.01,2013-07-20 06:00:00,
2013-07-20 02:04:00,76.4,72.9,29.93,SW,229,2.0,4.0,89,0.00,,---,0.00,VWS V14.01,2013-07-20 06:04:00,
2013-07-20 02:05:00,76.4,72.9,29.93,SW,229,2.0,4.0,89,0.00,,---,0.00,VWS V14.01,2013-07-20 06:05:00,
2013-07-20 02:09:00,76.3,72.8,29.93,West,268,1.0,5.0,89,0.00,,---,0.00,VWS V14.01,2013-07-20 06:09:00,
2013-07-20 02:10:00,76.3,72.8,29.93,West,268,1.0,5.0,89,0.00,,---,0.00,VWS V14.01,2013-07-20 06:10:00,
2013-07-20 02:14:00,76.2,72.7,29.93,West,268,0.0,3.0,89,0.00,,---,0.00,VWS V14.01,2013-07-20 06:14:00,
2013-07-20 02:15:00,76.2,72.7,29.93,West,268,0.0,3.0,89,0.00,,---,0.00,VWS V14.01,2013-07-20 06:15:00,
2013-07-20 02:19:00,76.0,72.5,29.93,West,267,2.0,4.0,89,0.00,,---,0.00,VWS V14.01,2013-07-20 06:19:00,
2013-07-20 02:20:00,76.0,72.5,29.93,West,267,2.0,4.0,89,0.00,,---,0.00,VWS V14.01,2013-07-20 06:20:00,
2013-07-20 02:24:00,76.0,72.9,29.93,West,267,0.0,3.0,90,0.00,,---,0.00,VWS V14.01,2013-07-20 06:24:00,
2013-07-20 02:25:00,76.0,72.9,29.93,West,267,0.0,3.0,90,0.00,,---,0.00,VWS V14.01,2013-07-20 06:25:00,
2013-07-20 02:29:00,75.9,72.8,29.93,West,266,0.0,3.0,90,0.00,,---,0.00,VWS V14.01,2013-07-20 06:29:00,
2013-07-20 02:30:00,75.9,72.8,29.93,West,266,0.0,3.0,90,0.00,,---,0.00,VWS V14.01,2013-07-20 06:30:00,
2013-07-20 02:34:00,75.7,72.6,29.93,West,268,0.0,4.0,90,0.00,,---,0.00,VWS V14.01,2013-07-20 06:34:00,
2013-07-20 02:35:00,75.7,72.6,29.93,West,268,0.0,4.0,90,0.00,,---,0.00,VWS V14.01,2013-07-20 06:35:00,
2013-07-20 02:39:00,75.6,72.8,29.93,WSW,257,2.0,4.0,91,0.00,,---,0.00,VWS V14.01,2013-07-20 06:39:00,
2013-07-20 02:40:00,75.6,72.8,29.93,WSW,257,2.0,4.0,91,0.00,,---,0.00,VWS V14.01,2013-07-20 06:40:00,
2013-07-20 02:44:00,75.7,72.9,29.93,SSW,207,3.0,4.0,91,0.00,,---,0.00,VWS V14.01,2013-07-20 06:44:00,
2013-07-20 02:45:00,75.7,72.9,29.93,SSW,207,3.0,4.0,91,0.00,,---,0.00,VWS V14.01,2013-07-20 06:45:00,
2013-07-20 02:49:00,75.7,72.9,29.93,SSW,208,4.0,4.0,91,0.00,,---,0.00,VWS V14.01,2013-07-20 06:49:00,
2013-07-20 02:50:00,75.7,72.9,29.93,SSW,208,4.0,4.0,91,0.00,,---,0.00,VWS V14.01,2013-07-20 06:50:00,
2013-07-20 02:54:00,75.6,72.8,29.93,SSW,200,0.0,4.0,91,0.00,,---,0.00,VWS V14.01,2013-07-20 06:54:00,
2013-07-20 02:55:00,75.6,72.8,29.93,SSW,200,0.0,4.0,91,0.00,,---,0.00,VWS V14.01,2013-07-20 06:55:00,
2013-07-20 02:59:00,75.5,72.7,29.93,SSW,200,1.0,3.0,91,0.00,,---,0.00,VWS V14.01,2013-07-20 06:59:00,
2013-07-20 03:00:00,75.5,72.7,29.93,SSW,200,1.0,3.0,91,0.00,,---,0.00,VWS V14.01,2013-07-20 07:00:00,
2013-07-20 03:04:00,75.5,72.7,29.93,SSW,206,0.0,4.0,91,0.00,,---,0.00,VWS V14.01,2013-07-20 07:04:00,
2013-07-20 03:05:00,75.5,72.7,29.93,SSW,206,0.0,4.0,91,0.00,,---,0.00,VWS V14.01,2013-07-20 07:05:00,
2013-07-20 03:09:00,75.5,72.7,29.93,SSW,206,0.0,2.0,91,0.00,,---,0.00,VWS V14.01,2013-07-20 07:09:00,
2013-07-20 03:10:00,75.5,72.7,29.93,SSW,206,0.0,2.0,91,0.00,,---,0.00,VWS V14.01,2013-07-20 07:10:00,
2013-07-20 03:14:00,75.4,72.6,29.94,SSW,206,0.0,3.0,91,0.00,,---,0.00,VWS V14.01,2013-07-20 07:14:00,
2013-07-20 03:15:00,75.4,72.6,29.94,SSW,206,0.0,3.0,91,0.00,,---,0.00,VWS V14.01,2013-07-20 07:15:00,
2013-07-20 03:19:00,75.3,72.5,29.94,SSW,206,1.0,3.0,91,0.00,,---,0.00,VWS V14.01,2013-07-20 07:19:00,
2013-07-20 03:20:00,75.3,72.5,29.94,SSW,206,1.0,3.0,91,0.00,,---,0.00,VWS V14.01,2013-07-20 07:20:00,
2013-07-20 03:24:00,75.2,72.4,29.93,SSW,207,0.0,3.0,91,0.00,,---,0.00,VWS V14.01,2013-07-20 07:24:00,
2013-07-20 03:25:00,75.2,72.4,29.93,SSW,207,0.0,3.0,91,0.00,,---,0.00,VWS V14.01,2013-07-20 07:25:00,
2013-07-20 03:29:00,75.1,72.6,29.94,SSW,207,1.0,1.0,92,0.00,,---,0.00,VWS V14.01,2013-07-20 07:29:00,
2013-07-20 03:30:00,75.1,72.6,29.94,SSW,207,1.0,1.0,92,0.00,,---,0.00,VWS V14.01,2013-07-20 07:30:00,
2013-07-20 03:34:00,75.1,72.6,29.93,SSW,207,0.0,2.0,92,0.00,,---,0.00,VWS V14.01,2013-07-20 07:34:00,
2013-07-20 03:35:00,75.1,72.6,29.93,SSW,207,0.0,2.0,92,0.00,,---,0.00,VWS V14.01,2013-07-20 07:35:00,
2013-07-20 03:39:00,74.9,72.4,29.94,SSW,207,0.0,2.0,92,0.00,,---,0.00,VWS V14.01,2013-07-20 07:39:00,
2013-07-20 03:40:00,74.9,72.4,29.94,SSW,207,0.0,2.0,92,0.00,,---,0.00,VWS V14.01,2013-07-20 07:40:00,
2013-07-20 03:44:00,74.9,72.4,29.94,SSW,206,0.0,2.0,92,0.00,,---,0.00,VWS V14.01,2013-07-20 07:44:00,
2013-07-20 03:45:00,74.9,72.4,29.94,SSW,206,0.0,2.0,92,0.00,,---,0.00,VWS V14.01,2013-07-20 07:45:00,
2013-07-20 03:49:00,74.7,72.2,29.94,SSW,200,0.0,3.0,92,0.00,,---,0.00,VWS V14.01,2013-07-20 07:49:00,
2013-07-20 03:50:00,74.7,72.2,29.94,SSW,200,0.0,3.0,92,0.00,,---,0.00,VWS V14.01,2013-07-20 07:50:00,
2013-07-20 03:54:00,74.6,72.1,29.94,SSW,200,0.0,2.0,92,0.00,,---,0.00,VWS V14.01,2013-07-20 07:54:00,
2013-07-20 03:55:00,74.6,72.1,29.94,SSW,200,0.0,2.0,92,0.00,,---,0.00,VWS V14.01,2013-07-20 07:55:00,
2013-07-20 03:59:00,74.5,72.3,29.93,SSW,200,1.0,1.0,93,0.00,,---,0.00,VWS V14.01,2013-07-20 07:59:00,
2013-07-20 04:00:00,74.5,72.3,29.93,SSW,200,1.0,1.0,93,0.00,,---,0.00,VWS V14.01,2013-07-20 08:00:00,
2013-07-20 04:04:00,74.4,72.2,29.94,SSW,200,0.0,3.0,93,0.00,,---,0.00,VWS V14.01,2013-07-20 08:04:00,
2013-07-20 04:05:00,74.4,72.2,29.94,SSW,200,0.0,3.0,93,0.00,,---,0.00,VWS V14.01,2013-07-20 08:05:00,
2013-07-20 04:09:00,74.4,72.2,29.93,SSW,200,2.0,3.0,93,0.00,,---,0.00,VWS V14.01,2013-07-20 08:09:00,
2013-07-20 04:10:00,74.4,72.2,29.93,SSW,200,2.0,3.0,93,0.00,,---,0.00,VWS V14.01,2013-07-20 08:10:00,
2013-07-20 04:14:00,74.2,72.1,29.92,SSW,200,0.0,2.0,93,0.00,,---,0.00,VWS V14.01,2013-07-20 08:14:00,
2013-07-20 04:15:00,74.2,72.1,29.92,SSW,200,0.0,2.0,93,0.00,,---,0.00,VWS V14.01,2013-07-20 08:15:00,
2013-07-20 04:19:00,74.1,72.3,29.92,SSW,200,0.0,3.0,94,0.00,,---,0.00,VWS V14.01,2013-07-20 08:19:00,
2013-07-20 04:20:00,74.1,72.3,29.92,SSW,200,0.0,3.0,94,0.00,,---,0.00,VWS V14.01,2013-07-20 08:20:00,
2013-07-20 04:24:00,74.0,72.2,29.93,SSW,200,0.0,2.0,94,0.00,,---,0.00,VWS V14.01,2013-07-20 08:24:00,
2013-07-20 04:25:00,74.0,72.2,29.93,SSW,200,0.0,2.0,94,0.00,,---,0.00,VWS V14.01,2013-07-20 08:25:00,
2013-07-20 04:29:00,74.0,72.2,29.92,SSW,200,0.0,2.0,94,0.00,,---,0.00,VWS V14.01,2013-07-20 08:29:00,
2013-07-20 04:30:00,74.0,72.2,29.92,SSW,200,0.0,2.0,94,0.00,,---,0.00,VWS V14.01,2013-07-20 08:30:00,
2013-07-20 04:34:00,73.9,72.1,29.92,SSW,200,0.0,1.0,94,0.00,,---,0.00,VWS V14.01,2013-07-20 08:34:00,
2013-07-20 04:35:00,73.9,72.1,29.92,SSW,200,0.0,1.0,94,0.00,,---,0.00,VWS V14.01,2013-07-20 08:35:00,
2013-07-20 04:39:00,73.8,72.0,29.92,SSW,200,0.0,2.0,94,0.00,,---,0.00,VWS V14.01,2013-07-20 08:39:00,
2013-07-20 04:40:00,73.8,72.0,29.92,SSW,200,0.0,2.0,94,0.00,,---,0.00,VWS V14.01,2013-07-20 08:40:00,
2013-07-20 04:44:00,73.7,71.9,29.91,SSW,200,2.0,3.0,94,0.00,,---,0.00,VWS V14.01,2013-07-20 08:44:00,
2013-07-20 04:45:00,73.7,71.9,29.91,SSW,200,2.0,3.0,94,0.00,,---,0.00,VWS V14.01,2013-07-20 08:45:00,
2013-07-20 04:49:00,73.7,71.9,29.92,SSW,200,2.0,4.0,94,0.00,,---,0.00,VWS V14.01,2013-07-20 08:49:00,
2013-07-20 04:50:00,73.7,71.9,29.92,SSW,200,2.0,4.0,94,0.00,,---,0.00,VWS V14.01,2013-07-20 08:50:00,
2013-07-20 04:54:00,73.6,72.1,29.91,SSW,200,1.0,2.0,95,0.00,,---,0.00,VWS V14.01,2013-07-20 08:54:00,
2013-07-20 04:55:00,73.6,72.1,29.91,SSW,200,1.0,2.0,95,0.00,,---,0.00,VWS V14.01,2013-07-20 08:55:00,
2013-07-20 04:59:00,73.5,72.0,29.91,SSW,201,0.0,4.0,95,0.00,,---,0.00,VWS V14.01,2013-07-20 08:59:00,
2013-07-20 05:00:00,73.5,72.0,29.91,SSW,201,0.0,4.0,95,0.00,,---,0.00,VWS V14.01,2013-07-20 09:00:00,
2013-07-20 05:04:00,73.5,72.0,29.91,WSW,240,2.0,4.0,95,0.00,,---,0.00,VWS V14.01,2013-07-20 09:04:00,
2013-07-20 05:05:00,73.5,72.0,29.91,WSW,240,2.0,4.0,95,0.00,,---,0.00,VWS V14.01,2013-07-20 09:05:00,
2013-07-20 05:09:00,73.6,72.1,29.91,SW,229,3.0,5.0,95,0.00,,---,0.00,VWS V14.01,2013-07-20 09:09:00,
2013-07-20 05:10:00,73.6,72.1,29.91,SW,229,3.0,5.0,95,0.00,,---,0.00,VWS V14.01,2013-07-20 09:10:00,
2013-07-20 05:14:00,73.6,72.1,29.91,SSW,212,3.0,5.0,95,0.00,,---,0.00,VWS V14.01,2013-07-20 09:14:00,
2013-07-20 05:15:00,73.6,72.1,29.91,SSW,212,3.0,5.0,95,0.00,,---,0.00,VWS V14.01,2013-07-20 09:15:00,
2013-07-20 05:19:00,73.6,72.1,29.92,SW,217,4.0,5.0,95,0.00,,---,0.00,VWS V14.01,2013-07-20 09:19:00,
2013-07-20 05:20:00,73.6,72.1,29.92,SW,217,4.0,5.0,95,0.00,,---,0.00,VWS V14.01,2013-07-20 09:20:00,
2013-07-20 05:24:00,73.6,72.1,29.92,WSW,257,3.0,6.0,95,0.00,,---,0.00,VWS V14.01,2013-07-20 09:24:00,
2013-07-20 05:25:00,73.6,72.1,29.92,WSW,257,3.0,6.0,95,0.00,,---,0.00,VWS V14.01,2013-07-20 09:25:00,
2013-07-20 05:29:00,73.6,72.1,29.92,SW,216,2.0,6.0,95,0.00,,---,0.00,VWS V14.01,2013-07-20 09:29:00,
2013-07-20 05:30:00,73.6,72.1,29.92,SW,216,2.0,6.0,95,0.00,,---,0.00,VWS V14.01,2013-07-20 09:30:00,
2013-07-20 05:34:00,73.6,72.1,29.92,SSW,209,2.0,6.0,95,0.00,,---,0.00,VWS V14.01,2013-07-20 09:34:00,
2013-07-20 05:35:00,73.6,72.1,29.92,SSW,209,2.0,6.0,95,0.00,,---,0.00,VWS V14.01,2013-07-20 09:35:00,
2013-07-20 05:39:00,73.6,72.1,29.92,SW,225,2.0,5.0,95,0.00,,---,0.00,VWS V14.01,2013-07-20 09:39:00,
2013-07-20 05:40:00,73.6,72.1,29.92,SW,225,2.0,5.0,95,0.00,,---,0.00,VWS V14.01,2013-07-20 09:40:00,
2013-07-20 05:44:00,73.6,72.1,29.92,SW,221,1.0,5.0,95,0.00,,---,0.00,VWS V14.01,2013-07-20 09:44:00,
2013-07-20 05:45:00,73.6,72.1,29.92,SW,221,1.0,5.0,95,0.00,,---,0.00,VWS V14.01,2013-07-20 09:45:00,
2013-07-20 05:49:00,73.6,72.1,29.92,SW,221,2.0,3.0,95,0.00,,---,0.00,VWS V14.01,2013-07-20 09:49:00,
2013-07-20 05:50:00,73.6,72.1,29.92,SW,221,2.0,3.0,95,0.00,,---,0.00,VWS V14.01,2013-07-20 09:50:00,
2013-07-20 05:54:00,73.6,72.1,29.92,SW,220,0.0,5.0,95,0.00,,---,0.00,VWS V14.01,2013-07-20 09:54:00,
2013-07-20 05:55:00,73.6,72.1,29.92,SW,220,0.0,5.0,95,0.00,,---,0.00,VWS V14.01,2013-07-20 09:55:00,
2013-07-20 05:59:00,73.6,72.1,29.92,WSW,247,1.0,5.0,95,0.00,,---,0.00,VWS V14.01,2013-07-20 09:59:00,
2013-07-20 06:00:00,73.6,72.1,29.92,WSW,247,1.0,5.0,95,0.00,,---,0.00,VWS V14.01,2013-07-20 10:00:00,
2013-07-20 06:04:00,73.6,72.1,29.93,SSW,194,2.0,5.0,95,0.00,,---,0.00,VWS V14.01,2013-07-20 10:04:00,
2013-07-20 06:05:00,73.6,72.1,29.93,SSW,194,2.0,5.0,95,0.00,,---,0.00,VWS V14.01,2013-07-20 10:05:00,
2013-07-20 06:09:00,73.6,72.1,29.93,SSW,194,0.0,3.0,95,0.00,,---,0.00,VWS V14.01,2013-07-20 10:09:00,
2013-07-20 06:10:00,73.6,72.1,29.93,SSW,194,0.0,3.0,95,0.00,,---,0.00,VWS V14.01,2013-07-20 10:10:00,
2013-07-20 06:14:00,73.6,72.1,29.93,WSW,246,2.0,4.0,95,0.00,,---,0.00,VWS V14.01,2013-07-20 10:14:00,
2013-07-20 06:15:00,73.6,72.1,29.93,WSW,246,2.0,4.0,95,0.00,,---,0.00,VWS V14.01,2013-07-20 10:15:00,
2013-07-20 06:19:00,73.6,72.1,29.93,WSW,243,2.0,2.0,95,0.00,,---,0.00,VWS V14.01,2013-07-20 10:19:00,
2013-07-20 06:20:00,73.6,72.1,29.93,WSW,243,2.0,2.0,95,0.00,,---,0.00,VWS V14.01,2013-07-20 10:20:00,
2013-07-20 06:24:00,73.6,72.1,29.93,SSW,209,4.0,4.0,95,0.00,,---,0.00,VWS V14.01,2013-07-20 10:24:00,
2013-07-20 06:25:00,73.6,72.1,29.93,SSW,209,4.0,4.0,95,0.00,,---,0.00,VWS V14.01,2013-07-20 10:25:00,
2013-07-20 06:29:00,73.6,72.1,29.93,SW,214,3.0,6.0,95,0.00,,---,0.00,VWS V14.01,2013-07-20 10:29:00,
2013-07-20 06:30:00,73.6,72.1,29.93,SW,214,3.0,6.0,95,0.00,,---,0.00,VWS V14.01,2013-07-20 10:30:00,
2013-07-20 06:34:00,73.5,72.0,29.93,SSW,199,5.0,6.0,95,0.00,,---,0.00,VWS V14.01,2013-07-20 10:34:00,
2013-07-20 06:35:00,73.5,72.0,29.93,SSW,199,5.0,6.0,95,0.00,,---,0.00,VWS V14.01,2013-07-20 10:35:00,
2013-07-20 06:39:00,73.5,72.0,29.93,SW,221,3.0,5.0,95,0.00,,---,0.00,VWS V14.01,2013-07-20 10:39:00,
2013-07-20 06:40:00,73.5,72.0,29.93,SW,221,3.0,5.0,95,0.00,,---,0.00,VWS V14.01,2013-07-20 10:40:00,
2013-07-20 06:44:00,73.5,72.0,29.93,SW,232,1.0,6.0,95,0.00,,---,0.00,VWS V14.01,2013-07-20 10:44:00,
2013-07-20 06:45:00,73.5,72.0,29.93,SW,232,1.0,6.0,95,0.00,,---,0.00,VWS V14.01,2013-07-20 10:45:00,
2013-07-20 06:49:00,73.6,72.1,29.93,SW,233,1.0,5.0,95,0.00,,---,0.00,VWS V14.01,2013-07-20 10:49:00,
2013-07-20 06:50:00,73.6,72.1,29.93,SW,233,1.0,5.0,95,0.00,,---,0.00,VWS V14.01,2013-07-20 10:50:00,
2013-07-20 06:54:00,73.6,72.1,29.93,SSW,209,0.0,5.0,95,0.00,,---,0.00,VWS V14.01,2013-07-20 10:54:00,
2013-07-20 06:55:00,73.6,72.1,29.93,SSW,209,0.0,5.0,95,0.00,,---,0.00,VWS V14.01,2013-07-20 10:55:00,
2013-07-20 06:59:00,73.7,72.2,29.93,West,274,2.0,4.0,95,0.00,,---,0.00,VWS V14.01,2013-07-20 10:59:00,
2013-07-20 07:00:00,73.7,72.2,29.93,West,274,2.0,4.0,95,0.00,,---,0.00,VWS V14.01,2013-07-20 11:00:00,
2013-07-20 07:04:00,73.8,72.3,29.94,SSW,194,3.0,5.0,95,0.00,,---,0.00,VWS V14.01,2013-07-20 11:04:00,
2013-07-20 07:05:00,73.8,72.3,29.94,SSW,194,3.0,5.0,95,0.00,,---,0.00,VWS V14.01,2013-07-20 11:05:00,
2013-07-20 07:09:00,73.8,72.3,29.94,SSW,196,0.0,4.0,95,0.00,,---,0.00,VWS V14.01,2013-07-20 11:09:00,
2013-07-20 07:10:00,73.8,72.3,29.94,SSW,196,0.0,4.0,95,0.00,,---,0.00,VWS V14.01,2013-07-20 11:10:00,
2013-07-20 07:14:00,73.9,72.4,29.94,SSW,205,2.0,5.0,95,0.00,,---,0.00,VWS V14.01,2013-07-20 11:14:00,
2013-07-20 07:15:00,73.9,72.4,29.94,SSW,205,2.0,5.0,95,0.00,,---,0.00,VWS V14.01,2013-07-20 11:15:00,
2013-07-20 07:19:00,73.9,72.4,29.94,SSW,205,2.0,3.0,95,0.00,,---,0.00,VWS V14.01,2013-07-20 11:19:00,
2013-07-20 07:20:00,73.9,72.4,29.94,SSW,205,2.0,3.0,95,0.00,,---,0.00,VWS V14.01,2013-07-20 11:20:00,
2013-07-20 07:24:00,73.9,72.4,29.94,SSW,205,1.0,3.0,95,0.00,,---,0.00,VWS V14.01,2013-07-20 11:24:00,
2013-07-20 07:25:00,73.9,72.4,29.94,SSW,205,1.0,3.0,95,0.00,,---,0.00,VWS V14.01,2013-07-20 11:25:00,
2013-07-20 07:29:00,74.0,72.5,29.93,South,182,2.0,3.0,95,0.00,,---,0.00,VWS V14.01,2013-07-20 11:29:00,
2013-07-20 07:30:00,74.0,72.5,29.93,South,182,2.0,3.0,95,0.00,,---,0.00,VWS V14.01,2013-07-20 11:30:00,
2013-07-20 07:34:00,74.1,72.6,29.94,SSE,153,0.0,6.0,95,0.00,,---,0.00,VWS V14.01,2013-07-20 11:34:00,
2013-07-20 07:35:00,74.1,72.6,29.94,SSE,153,0.0,6.0,95,0.00,,---,0.00,VWS V14.01,2013-07-20 11:35:00,
2013-07-20 07:39:00,74.3,72.8,29.94,SW,232,0.0,4.0,95,0.00,,---,0.00,VWS V14.01,2013-07-20 11:39:00,
2013-07-20 07:40:00,74.3,72.8,29.94,SW,232,0.0,4.0,95,0.00,,---,0.00,VWS V14.01,2013-07-20 11:40:00,
2013-07-20 07:44:00,74.6,72.8,29.94,SW,219,2.0,4.0,94,0.00,,---,0.00,VWS V14.01,2013-07-20 11:44:00,
2013-07-20 07:45:00,74.6,72.8,29.94,SW,219,2.0,4.0,94,0.00,,---,0.00,VWS V14.01,2013-07-20 11:45:00,
2013-07-20 07:49:00,74.6,72.8,29.94,SSW,195,3.0,5.0,94,0.00,,---,0.00,VWS V14.01,2013-07-20 11:49:00,
2013-07-20 07:50:00,74.6,72.8,29.94,SSW,195,3.0,5.0,94,0.00,,---,0.00,VWS V14.01,2013-07-20 11:50:00,
2013-07-20 07:54:00,74.8,73.0,29.94,West,259,0.0,5.0,94,0.00,,---,0.00,VWS V14.01,2013-07-20 11:54:00,
2013-07-20 07:55:00,74.8,73.0,29.94,West,259,0.0,5.0,94,0.00,,---,0.00,VWS V14.01,2013-07-20 11:55:00,
2013-07-20 07:59:00,74.8,73.0,29.94,WSW,247,2.0,5.0,94,0.00,,---,0.00,VWS V14.01,2013-07-20 11:59:00,
2013-07-20 08:00:00,74.8,73.0,29.94,WSW,247,2.0,5.0,94,0.00,,---,0.00,VWS V14.01,2013-07-20 12:00:00,
2013-07-20 08:04:00,75.0,73.2,29.94,SW,218,5.0,5.0,94,0.00,,---,0.00,VWS V14.01,2013-07-20 12:04:00,
2013-07-20 08:05:00,75.0,73.2,29.94,SW,218,5.0,5.0,94,0.00,,---,0.00,VWS V14.01,2013-07-20 12:05:00,
2013-07-20 08:09:00,75.2,73.0,29.94,SSW,211,6.0,7.0,93,0.00,,---,0.00,VWS V14.01,2013-07-20 12:09:00,
2013-07-20 08:10:00,75.2,73.0,29.94,SSW,211,6.0,7.0,93,0.00,,---,0.00,VWS V14.01,2013-07-20 12:10:00,
2013-07-20 08:14:00,75.2,73.0,29.94,SW,219,4.0,7.0,93,0.00,,---,0.00,VWS V14.01,2013-07-20 12:14:00,
2013-07-20 08:15:00,75.2,73.0,29.94,SW,219,4.0,7.0,93,0.00,,---,0.00,VWS V14.01,2013-07-20 12:15:00,
2013-07-20 08:19:00,75.1,72.9,29.94,SSW,210,7.0,8.0,93,0.00,,---,0.00,VWS V14.01,2013-07-20 12:19:00,
2013-07-20 08:20:00,75.1,72.9,29.94,SSW,210,7.0,8.0,93,0.00,,---,0.00,VWS V14.01,2013-07-20 12:20:00,
2013-07-20 08:24:00,74.9,72.7,29.94,SSW,212,4.0,8.0,93,0.00,,---,0.00,VWS V14.01,2013-07-20 12:24:00,
2013-07-20 08:25:00,74.9,72.7,29.94,SSW,212,4.0,8.0,93,0.00,,---,0.00,VWS V14.01,2013-07-20 12:25:00,
2013-07-20 08:29:00,74.8,72.6,29.95,SSW,194,4.0,9.0,93,0.00,,---,0.00,VWS V14.01,2013-07-20 12:29:00,
2013-07-20 08:30:00,74.8,72.6,29.95,SSW,194,4.0,9.0,93,0.00,,---,0.00,VWS V14.01,2013-07-20 12:30:00,
2013-07-20 08:34:00,74.8,73.0,29.95,SW,226,3.0,5.0,94,0.00,,---,0.00,VWS V14.01,2013-07-20 12:34:00,
2013-07-20 08:35:00,74.8,73.0,29.95,SW,226,3.0,5.0,94,0.00,,---,0.00,VWS V14.01,2013-07-20 12:35:00,
2013-07-20 08:39:00,74.9,73.1,29.95,West,263,4.0,8.0,94,0.00,,---,0.00,VWS V14.01,2013-07-20 12:39:00,
2013-07-20 08:40:00,74.9,73.1,29.95,West,263,4.0,8.0,94,0.00,,---,0.00,VWS V14.01,2013-07-20 12:40:00,
2013-07-20 08:44:00,75.0,73.2,29.95,SSW,199,7.0,9.0,94,0.00,,---,0.00,VWS V14.01,2013-07-20 12:44:00,
2013-07-20 08:45:00,75.0,73.2,29.95,SSW,199,7.0,9.0,94,0.00,,---,0.00,VWS V14.01,2013-07-20 12:45:00,
2013-07-20 08:49:00,75.1,73.3,29.95,South,191,5.0,7.0,94,0.00,,---,0.00,VWS V14.01,2013-07-20 12:49:00,
2013-07-20 08:50:00,75.1,73.3,29.95,South,191,5.0,7.0,94,0.00,,---,0.00,VWS V14.01,2013-07-20 12:50:00,
2013-07-20 08:54:00,75.4,73.2,29.95,SW,221,2.0,7.0,93,0.00,,---,0.00,VWS V14.01,2013-07-20 12:54:00,
2013-07-20 08:55:00,75.4,73.2,29.95,SW,221,2.0,7.0,93,0.00,,---,0.00,VWS V14.01,2013-07-20 12:55:00,
2013-07-20 08:59:00,76.1,73.6,29.94,SSW,212,6.0,6.0,92,0.00,,---,0.00,VWS V14.01,2013-07-20 12:59:00,
2013-07-20 09:00:00,76.1,73.6,29.94,SSW,212,6.0,6.0,92,0.00,,---,0.00,VWS V14.01,2013-07-20 13:00:00,
2013-07-20 09:04:00,76.5,73.7,29.95,SSW,192,5.0,8.0,91,0.00,,---,0.00,VWS V14.01,2013-07-20 13:04:00,
2013-07-20 09:05:00,76.5,73.7,29.95,SSW,192,5.0,8.0,91,0.00,,---,0.00,VWS V14.01,2013-07-20 13:05:00,
2013-07-20 09:09:00,77.0,74.2,29.95,South,184,4.0,6.0,91,0.00,,---,0.00,VWS V14.01,2013-07-20 13:09:00,
2013-07-20 09:10:00,77.0,74.2,29.95,South,184,4.0,6.0,91,0.00,,---,0.00,VWS V14.01,2013-07-20 13:10:00,
2013-07-20 09:14:00,77.2,74.0,29.95,South,190,2.0,7.0,90,0.00,,---,0.00,VWS V14.01,2013-07-20 13:14:00,
2013-07-20 09:15:00,77.2,74.0,29.95,South,190,2.0,7.0,90,0.00,,---,0.00,VWS V14.01,2013-07-20 13:15:00,
2013-07-20 09:19:00,77.3,73.8,29.94,South,184,2.0,7.0,89,0.00,,---,0.00,VWS V14.01,2013-07-20 13:19:00,
2013-07-20 09:20:00,77.3,73.8,29.94,South,184,2.0,7.0,89,0.00,,---,0.00,VWS V14.01,2013-07-20 13:20:00,
2013-07-20 09:24:00,77.8,74.6,29.95,SSW,212,4.0,7.0,90,0.00,,---,0.00,VWS V14.01,2013-07-20 13:24:00,
2013-07-20 09:25:00,77.8,74.6,29.95,SSW,212,4.0,7.0,90,0.00,,---,0.00,VWS V14.01,2013-07-20 13:25:00,
2013-07-20 09:29:00,77.9,74.4,29.94,SW,225,3.0,5.0,89,0.00,,---,0.00,VWS V14.01,2013-07-20 13:29:00,
2013-07-20 09:30:00,77.9,74.4,29.94,SW,225,3.0,5.0,89,0.00,,---,0.00,VWS V14.01,2013-07-20 13:30:00,
2013-07-20 09:34:00,78.0,74.2,29.94,SW,216,2.0,7.0,88,0.00,,---,0.00,VWS V14.01,2013-07-20 13:34:00,
2013-07-20 09:35:00,78.0,74.2,29.94,SW,216,2.0,7.0,88,0.00,,---,0.00,VWS V14.01,2013-07-20 13:35:00,
2013-07-20 09:39:00,78.3,74.5,29.94,South,187,2.0,7.0,88,0.00,,---,0.00,VWS V14.01,2013-07-20 13:39:00,
2013-07-20 09:40:00,78.3,74.5,29.94,South,187,2.0,7.0,88,0.00,,---,0.00,VWS V14.01,2013-07-20 13:40:00,
2013-07-20 09:44:00,78.9,74.7,29.94,West,272,5.0,5.0,87,0.00,,---,0.00,VWS V14.01,2013-07-20 13:44:00,
2013-07-20 09:45:00,78.9,74.7,29.94,West,272,5.0,5.0,87,0.00,,---,0.00,VWS V14.01,2013-07-20 13:45:00,
2013-07-20 09:49:00,79.3,75.1,29.95,SSE,163,2.0,7.0,87,0.00,,---,0.00,VWS V14.01,2013-07-20 13:49:00,
2013-07-20 09:50:00,79.3,75.1,29.95,SSE,163,2.0,7.0,87,0.00,,---,0.00,VWS V14.01,2013-07-20 13:50:00,
2013-07-20 09:54:00,79.3,74.8,29.95,WSW,251,4.0,7.0,86,0.00,,---,0.00,VWS V14.01,2013-07-20 13:54:00,
2013-07-20 09:55:00,79.3,74.8,29.95,WSW,251,4.0,7.0,86,0.00,,---,0.00,VWS V14.01,2013-07-20 13:55:00,
2013-07-20 09:59:00,79.1,74.6,29.95,SW,214,2.0,6.0,86,0.00,,---,0.00,VWS V14.01,2013-07-20 13:59:00,
2013-07-20 10:00:00,79.1,74.6,29.95,SW,214,2.0,6.0,86,0.00,,---,0.00,VWS V14.01,2013-07-20 14:00:00,
2013-07-20 10:04:00,79.3,75.1,29.95,South,169,4.0,6.0,87,0.00,,---,0.00,VWS V14.01,2013-07-20 14:04:00,
2013-07-20 10:05:00,79.3,75.1,29.95,South,169,4.0,6.0,87,0.00,,---,0.00,VWS V14.01,2013-07-20 14:05:00,
2013-07-20 10:09:00,80.1,75.2,29.95,SSW,211,7.0,8.0,85,0.00,,---,0.00,VWS V14.01,2013-07-20 14:09:00,
2013-07-20 10:10:00,80.1,75.2,29.95,SSW,211,7.0,8.0,85,0.00,,---,0.00,VWS V14.01,2013-07-20 14:10:00,
2013-07-20 10:14:00,79.9,75.0,29.95,SSW,207,5.0,8.0,85,0.00,,---,0.00,VWS V14.01,2013-07-20 14:14:00,
2013-07-20 10:15:00,79.9,75.0,29.95,SSW,207,5.0,8.0,85,0.00,,---,0.00,VWS V14.01,2013-07-20 14:15:00,
2013-07-20 10:19:00,79.8,74.5,29.94,South,175,6.0,6.0,84,0.00,,---,0.00,VWS V14.01,2013-07-20 14:19:00,
2013-07-20 10:20:00,79.8,74.5,29.94,South,175,6.0,6.0,84,0.00,,---,0.00,VWS V14.01,2013-07-20 14:20:00,
2013-07-20 10:24:00,80.0,75.1,29.95,South,180,3.0,6.0,85,0.00,,---,0.00,VWS V14.01,2013-07-20 14:24:00,
2013-07-20 10:25:00,80.0,75.1,29.95,South,180,3.0,6.0,85,0.00,,---,0.00,VWS V14.01,2013-07-20 14:25:00,
2013-07-20 10:29:00,80.2,74.9,29.95,South,185,2.0,6.0,84,0.00,,---,0.00,VWS V14.01,2013-07-20 14:29:00,
2013-07-20 10:30:00,80.2,74.9,29.95,South,185,2.0,6.0,84,0.00,,---,0.00,VWS V14.01,2013-07-20 14:30:00,
2013-07-20 10:34:00,80.2,75.3,29.95,South,184,3.0,6.0,85,0.00,,---,0.00,VWS V14.01,2013-07-20 14:34:00,
2013-07-20 10:35:00,80.2,75.3,29.95,South,184,3.0,6.0,85,0.00,,---,0.00,VWS V14.01,2013-07-20 14:35:00,
2013-07-20 10:39:00,80.3,75.0,29.94,WSW,251,2.0,6.0,84,0.00,,---,0.00,VWS V14.01,2013-07-20 14:39:00,
2013-07-20 10:40:00,80.3,75.0,29.94,WSW,251,2.0,6.0,84,0.00,,---,0.00,VWS V14.01,2013-07-20 14:40:00,
2013-07-20 10:44:00,80.3,74.7,29.95,WSW,243,4.0,7.0,83,0.00,,---,0.00,VWS V14.01,2013-07-20 14:44:00,
2013-07-20 10:45:00,80.3,74.7,29.95,WSW,243,4.0,7.0,83,0.00,,---,0.00,VWS V14.01,2013-07-20 14:45:00,
2013-07-20 10:50:00,80.8,75.2,29.95,South,190,5.0,7.0,83,0.00,,---,0.00,VWS V14.01,2013-07-20 14:50:00,
2013-07-20 10:54:00,81.1,75.1,29.95,SSW,192,1.0,7.0,82,0.00,,---,0.00,VWS V14.01,2013-07-20 14:54:00,
2013-07-20 10:55:00,81.1,75.1,29.95,SSW,192,1.0,7.0,82,0.00,,---,0.00,VWS V14.01,2013-07-20 14:55:00,
2013-07-20 10:59:00,81.5,75.5,29.94,SSW,206,7.0,8.0,82,0.00,,---,0.00,VWS V14.01,2013-07-20 14:59:00,
2013-07-20 11:00:00,81.5,75.5,29.94,SSW,206,7.0,8.0,82,0.00,,---,0.00,VWS V14.01,2013-07-20 15:00:00,
2013-07-20 11:04:00,81.6,75.2,29.94,SSW,213,8.0,9.0,81,0.00,,---,0.00,VWS V14.01,2013-07-20 15:04:00,
2013-07-20 11:05:00,81.6,75.2,29.94,SSW,213,8.0,9.0,81,0.00,,---,0.00,VWS V14.01,2013-07-20 15:05:00,
2013-07-20 11:09:00,81.8,75.4,29.94,SW,217,7.0,12.0,81,0.00,,---,0.00,VWS V14.01,2013-07-20 15:09:00,
2013-07-20 11:10:00,81.8,75.4,29.94,SW,217,7.0,12.0,81,0.00,,---,0.00,VWS V14.01,2013-07-20 15:10:00,
2013-07-20 11:14:00,82.0,75.2,29.94,SW,224,5.0,11.0,80,0.00,,---,0.00,VWS V14.01,2013-07-20 15:14:00,
2013-07-20 11:15:00,82.0,75.2,29.94,SW,224,5.0,11.0,80,0.00,,---,0.00,VWS V14.01,2013-07-20 15:15:00,
2013-07-20 11:19:00,82.6,76.2,29.94,SSW,207,5.0,11.0,81,0.00,,---,0.00,VWS V14.01,2013-07-20 15:19:00,
2013-07-20 11:20:00,82.6,76.2,29.94,SSW,207,5.0,11.0,81,0.00,,---,0.00,VWS V14.01,2013-07-20 15:20:00,
2013-07-20 11:24:00,82.9,76.1,29.94,South,185,6.0,12.0,80,0.00,,---,0.00,VWS V14.01,2013-07-20 15:24:00,
2013-07-20 11:25:00,82.9,76.1,29.94,South,185,6.0,12.0,80,0.00,,---,0.00,VWS V14.01,2013-07-20 15:25:00,
2013-07-20 11:29:00,82.6,75.4,29.94,WSW,250,3.0,11.0,79,0.00,,---,0.00,VWS V14.01,2013-07-20 15:29:00,
2013-07-20 11:30:00,82.6,75.4,29.94,WSW,250,3.0,11.0,79,0.00,,---,0.00,VWS V14.01,2013-07-20 15:30:00,
2013-07-20 11:34:00,82.2,75.8,29.94,WNW,288,4.0,7.0,81,0.00,,---,0.00,VWS V14.01,2013-07-20 15:34:00,
2013-07-20 11:35:00,82.2,75.8,29.94,WNW,288,4.0,7.0,81,0.00,,---,0.00,VWS V14.01,2013-07-20 15:35:00,
2013-07-20 11:39:00,82.2,73.9,29.95,WSW,256,3.0,8.0,76,0.00,,---,0.00,VWS V14.01,2013-07-20 15:39:00,
2013-07-20 11:40:00,82.2,73.9,29.95,WSW,256,3.0,8.0,76,0.00,,---,0.00,VWS V14.01,2013-07-20 15:40:00,
2013-07-20 11:44:00,81.7,73.8,29.95,WNW,292,2.0,7.0,77,0.00,,---,0.00,VWS V14.01,2013-07-20 15:44:00,
2013-07-20 11:45:00,81.7,73.8,29.95,WNW,292,2.0,7.0,77,0.00,,---,0.00,VWS V14.01,2013-07-20 15:45:00,
2013-07-20 11:49:00,81.2,74.1,29.95,South,185,4.0,10.0,79,0.00,,---,0.00,VWS V14.01,2013-07-20 15:49:00,
2013-07-20 11:50:00,81.2,74.1,29.95,South,185,4.0,10.0,79,0.00,,---,0.00,VWS V14.01,2013-07-20 15:50:00,
2013-07-20 11:54:00,79.6,73.6,29.94,SSW,199,3.0,8.0,82,0.00,,---,0.00,VWS V14.01,2013-07-20 15:54:00,
2013-07-20 11:55:00,79.6,73.6,29.94,SSW,199,3.0,8.0,82,0.00,,---,0.00,VWS V14.01,2013-07-20 15:55:00,
2013-07-20 11:59:00,79.0,73.4,29.94,West,263,7.0,8.0,83,0.00,,---,0.00,VWS V14.01,2013-07-20 15:59:00,
2013-07-20 12:00:00,79.0,73.4,29.94,West,263,7.0,8.0,83,0.00,,---,0.00,VWS V14.01,2013-07-20 16:00:00,
2013-07-20 12:04:00,78.9,71.1,29.94,West,269,0.0,7.0,77,0.00,,---,0.00,VWS V14.01,2013-07-20 16:04:00,
2013-07-20 12:05:00,78.9,71.1,29.94,West,269,0.0,7.0,77,0.00,,---,0.00,VWS V14.01,2013-07-20 16:05:00,
2013-07-20 12:09:00,78.5,71.8,29.94,West,269,0.0,2.0,80,0.00,,---,0.00,VWS V14.01,2013-07-20 16:09:00,
2013-07-20 12:10:00,78.5,71.8,29.94,West,269,0.0,2.0,80,0.00,,---,0.00,VWS V14.01,2013-07-20 16:10:00,
2013-07-20 12:14:00,78.6,72.7,29.94,West,275,1.0,2.0,82,0.00,,---,0.00,VWS V14.01,2013-07-20 16:14:00,
2013-07-20 12:15:00,78.6,72.7,29.94,West,275,1.0,2.0,82,0.00,,---,0.00,VWS V14.01,2013-07-20 16:15:00,
2013-07-20 12:19:00,78.9,73.7,29.93,WNW,287,0.0,4.0,84,0.00,,---,0.00,VWS V14.01,2013-07-20 16:19:00,
2013-07-20 12:20:00,78.9,73.7,29.93,WNW,287,0.0,4.0,84,0.00,,---,0.00,VWS V14.01,2013-07-20 16:20:00,
2013-07-20 12:24:00,80.0,68.5,29.93,NNW,327,0.0,5.0,68,0.00,,---,0.00,VWS V14.01,2013-07-20 16:24:00,
2013-07-20 12:25:00,80.0,68.5,29.93,NNW,327,0.0,5.0,68,0.00,,---,0.00,VWS V14.01,2013-07-20 16:25:00,
2013-07-20 12:29:00,81.2,70.9,29.93,NW,321,2.0,4.0,71,0.00,,---,0.00,VWS V14.01,2013-07-20 16:29:00,
2013-07-20 12:30:00,81.2,70.9,29.93,NW,321,2.0,4.0,71,0.00,,---,0.00,VWS V14.01,2013-07-20 16:30:00,
2013-07-20 12:34:00,82.1,70.5,29.93,NW,315,1.0,5.0,68,0.00,,---,0.00,VWS V14.01,2013-07-20 16:34:00,
2013-07-20 12:35:00,82.1,70.5,29.93,NW,315,1.0,5.0,68,0.00,,---,0.00,VWS V14.01,2013-07-20 16:35:00,
2013-07-20 12:39:00,82.1,68.3,29.94,SW,223,2.0,5.0,63,0.00,,---,0.00,VWS V14.01,2013-07-20 16:39:00,
2013-07-20 12:40:00,82.1,68.3,29.94,SW,223,2.0,5.0,63,0.00,,---,0.00,VWS V14.01,2013-07-20 16:40:00,
2013-07-20 12:44:00,81.6,68.2,29.93,West,274,2.0,4.0,64,0.00,,---,0.00,VWS V14.01,2013-07-20 16:44:00,
2013-07-20 12:45:00,81.6,68.2,29.93,West,274,2.0,4.0,64,0.00,,---,0.00,VWS V14.01,2013-07-20 16:45:00,
2013-07-20 12:49:00,81.7,67.9,29.94,West,274,0.0,2.0,63,0.00,,---,0.00,VWS V14.01,2013-07-20 16:49:00,
2013-07-20 12:50:00,81.7,67.9,29.94,West,274,0.0,2.0,63,0.00,,---,0.00,VWS V14.01,2013-07-20 16:50:00,
2013-07-20 12:54:00,82.2,69.3,29.94,West,272,0.0,4.0,65,0.00,,---,0.00,VWS V14.01,2013-07-20 16:54:00,
2013-07-20 12:55:00,82.2,69.3,29.94,West,272,0.0,4.0,65,0.00,,---,0.00,VWS V14.01,2013-07-20 16:55:00,
2013-07-20 12:59:00,82.7,73.2,29.93,SSW,213,0.0,4.0,73,0.00,,---,0.00,VWS V14.01,2013-07-20 16:59:00,
2013-07-20 13:00:00,82.7,73.2,29.93,SSW,213,0.0,4.0,73,0.00,,---,0.00,VWS V14.01,2013-07-20 17:00:00,
2013-07-20 13:04:00,82.6,71.0,29.94,SE,128,0.0,5.0,68,0.00,,---,0.00,VWS V14.01,2013-07-20 17:04:00,
2013-07-20 13:05:00,82.6,71.0,29.94,SE,128,0.0,5.0,68,0.00,,---,0.00,VWS V14.01,2013-07-20 17:05:00,
2013-07-20 13:09:00,82.2,71.9,29.94,SSW,205,1.0,4.0,71,0.00,,---,0.00,VWS V14.01,2013-07-20 17:09:00,
2013-07-20 13:10:00,82.2,71.9,29.94,SSW,205,1.0,4.0,71,0.00,,---,0.00,VWS V14.01,2013-07-20 17:10:00,
2013-07-20 13:14:00,81.3,70.2,29.93,SE,138,0.0,4.0,69,0.00,,---,0.00,VWS V14.01,2013-07-20 17:14:00,
2013-07-20 13:15:00,81.3,70.2,29.93,SE,138,0.0,4.0,69,0.00,,---,0.00,VWS V14.01,2013-07-20 17:15:00,
2013-07-20 13:19:00,80.7,71.2,29.93,SE,138,0.0,2.0,73,0.00,,---,0.00,VWS V14.01,2013-07-20 17:19:00,
2013-07-20 13:20:00,80.7,71.2,29.93,SE,138,0.0,2.0,73,0.00,,---,0.00,VWS V14.01,2013-07-20 17:20:00,
2013-07-20 13:24:00,80.3,70.9,29.93,SSW,193,2.0,4.0,73,0.00,,---,0.00,VWS V14.01,2013-07-20 17:24:00,
2013-07-20 13:25:00,80.3,70.9,29.93,SSW,193,2.0,4.0,73,0.00,,---,0.00,VWS V14.01,2013-07-20 17:25:00,
2013-07-20 13:29:00,79.7,71.9,29.93,South,189,1.0,4.0,77,0.00,,---,0.00,VWS V14.01,2013-07-20 17:29:00,
2013-07-20 13:30:00,79.7,71.9,29.93,South,189,1.0,4.0,77,0.00,,---,0.00,VWS V14.01,2013-07-20 17:30:00,
2013-07-20 13:34:00,79.2,72.5,29.92,South,185,1.0,3.0,80,0.00,,---,0.00,VWS V14.01,2013-07-20 17:34:00,
2013-07-20 13:35:00,79.2,72.5,29.92,South,185,1.0,3.0,80,0.00,,---,0.00,VWS V14.01,2013-07-20 17:35:00,
2013-07-20 13:39:00,79.2,72.1,29.92,South,188,1.0,3.0,79,0.00,,---,0.00,VWS V14.01,2013-07-20 17:39:00,
2013-07-20 13:40:00,79.2,72.1,29.92,South,188,1.0,3.0,79,0.00,,---,0.00,VWS V14.01,2013-07-20 17:40:00,
2013-07-20 13:44:00,79.1,72.4,29.92,SSW,209,0.0,3.0,80,0.00,,---,0.00,VWS V14.01,2013-07-20 17:44:00,
2013-07-20 13:45:00,79.1,72.4,29.92,SSW,209,0.0,3.0,80,0.00,,---,0.00,VWS V14.01,2013-07-20 17:45:00,
2013-07-20 13:49:00,79.0,71.9,29.92,SSW,209,0.0,2.0,79,0.00,,---,0.00,VWS V14.01,2013-07-20 17:49:00,
2013-07-20 13:50:00,79.0,71.9,29.92,SSW,209,0.0,2.0,79,0.00,,---,0.00,VWS V14.01,2013-07-20 17:50:00,
2013-07-20 13:54:00,78.9,72.6,29.92,SSW,208,1.0,3.0,81,0.00,,---,0.00,VWS V14.01,2013-07-20 17:54:00,
2013-07-20 13:55:00,78.9,72.6,29.92,SSW,208,1.0,3.0,81,0.00,,---,0.00,VWS V14.01,2013-07-20 17:55:00,
2013-07-20 13:59:00,78.9,72.9,29.92,SSW,198,2.0,3.0,82,0.00,,---,0.00,VWS V14.01,2013-07-20 17:59:00,
2013-07-20 14:00:00,78.9,72.9,29.92,SSW,198,2.0,3.0,82,0.00,,---,0.00,VWS V14.01,2013-07-20 18:00:00,
2013-07-20 14:04:00,78.6,73.0,29.91,SSE,168,1.0,5.0,83,0.00,,---,0.00,VWS V14.01,2013-07-20 18:04:00,
2013-07-20 14:05:00,78.6,73.0,29.91,SSE,168,1.0,5.0,83,0.00,,---,0.00,VWS V14.01,2013-07-20 18:05:00,
2013-07-20 14:09:00,78.6,73.4,29.91,SSE,167,1.0,4.0,84,0.00,,---,0.00,VWS V14.01,2013-07-20 18:09:00,
2013-07-20 14:10:00,78.6,73.4,29.91,SSE,167,1.0,4.0,84,0.00,,---,0.00,VWS V14.01,2013-07-20 18:10:00,
2013-07-20 14:14:00,78.7,72.8,29.90,SSE,165,0.0,4.0,82,0.00,,---,0.00,VWS V14.01,2013-07-20 18:14:00,
2013-07-20 14:15:00,78.7,72.8,29.90,SSE,165,0.0,4.0,82,0.00,,---,0.00,VWS V14.01,2013-07-20 18:15:00,
2013-07-20 14:19:00,79.1,73.5,29.90,SSE,165,2.0,4.0,83,0.00,,---,0.00,VWS V14.01,2013-07-20 18:19:00,
2013-07-20 14:20:00,79.1,73.5,29.90,SSE,165,2.0,4.0,83,0.00,,---,0.00,VWS V14.01,2013-07-20 18:20:00,
2013-07-20 14:24:00,79.5,73.5,29.90,South,176,2.0,5.0,82,0.00,,---,0.00,VWS V14.01,2013-07-20 18:24:00,
2013-07-20 14:25:00,79.5,73.5,29.90,South,176,2.0,5.0,82,0.00,,---,0.00,VWS V14.01,2013-07-20 18:25:00,
2013-07-20 14:29:00,79.8,72.7,29.90,South,176,1.0,2.0,79,0.00,,---,0.00,VWS V14.01,2013-07-20 18:29:00,
2013-07-20 14:30:00,79.8,72.7,29.90,South,176,1.0,2.0,79,0.00,,---,0.00,VWS V14.01,2013-07-20 18:30:00,
2013-07-20 14:34:00,80.3,73.6,29.90,South,183,4.0,4.0,80,0.00,,---,0.00,VWS V14.01,2013-07-20 18:34:00,
2013-07-20 14:35:00,80.3,73.6,29.90,South,183,4.0,4.0,80,0.00,,---,0.00,VWS V14.01,2013-07-20 18:35:00,
2013-07-20 14:39:00,80.3,73.9,29.90,South,178,2.0,4.0,81,0.00,,---,0.00,VWS V14.01,2013-07-20 18:39:00,
2013-07-20 14:40:00,80.3,73.9,29.90,South,178,2.0,4.0,81,0.00,,---,0.00,VWS V14.01,2013-07-20 18:40:00,
2013-07-20 14:45:00,80.6,73.9,29.90,SSE,163,4.0,7.0,80,0.00,,---,0.00,VWS V14.01,2013-07-20 18:45:00,
2013-07-20 14:50:00,80.5,73.4,29.90,SSE,166,0.0,4.0,79,0.00,,---,0.00,VWS V14.01,2013-07-20 18:50:00,
2013-07-20 14:54:00,80.5,73.0,29.90,SSW,201,1.0,7.0,78,0.00,,---,0.00,VWS V14.01,2013-07-20 18:54:00,
2013-07-20 14:55:00,80.5,73.0,29.90,SSW,201,1.0,7.0,78,0.00,,---,0.00,VWS V14.01,2013-07-20 18:55:00,
2013-07-20 14:59:00,80.5,72.6,29.90,SW,221,1.0,6.0,77,0.00,,---,0.00,VWS V14.01,2013-07-20 18:59:00,
2013-07-20 15:00:00,80.5,72.6,29.90,SW,221,1.0,6.0,77,0.00,,---,0.00,VWS V14.01,2013-07-20 19:00:00,
2013-07-20 15:04:00,80.6,73.5,29.90,South,182,4.0,6.0,79,0.00,,---,0.00,VWS V14.01,2013-07-20 19:04:00,
2013-07-20 15:05:00,80.6,73.5,29.90,South,182,4.0,6.0,79,0.00,,---,0.00,VWS V14.01,2013-07-20 19:05:00,
2013-07-20 15:09:00,81.4,74.3,29.90,SSE,159,4.0,6.0,79,0.00,,---,0.00,VWS V14.01,2013-07-20 19:09:00,
2013-07-20 15:10:00,81.4,74.3,29.90,SSE,159,4.0,6.0,79,0.00,,---,0.00,VWS V14.01,2013-07-20 19:10:00,
2013-07-20 15:14:00,81.2,73.3,29.90,SSE,165,1.0,5.0,77,0.00,,---,0.00,VWS V14.01,2013-07-20 19:14:00,
2013-07-20 15:15:00,81.2,73.3,29.90,SSE,165,1.0,5.0,77,0.00,,---,0.00,VWS V14.01,2013-07-20 19:15:00,
2013-07-20 15:19:00,80.9,73.0,29.90,SSW,199,2.0,5.0,77,0.00,,---,0.00,VWS V14.01,2013-07-20 19:19:00,
2013-07-20 15:20:00,80.9,73.0,29.90,SSW,199,2.0,5.0,77,0.00,,---,0.00,VWS V14.01,2013-07-20 19:20:00,
2013-07-20 15:24:00,80.9,73.4,29.89,South,175,2.0,4.0,78,0.00,,---,0.00,VWS V14.01,2013-07-20 19:24:00,
2013-07-20 15:25:00,80.9,73.4,29.89,South,175,2.0,4.0,78,0.00,,---,0.00,VWS V14.01,2013-07-20 19:25:00,
2013-07-20 15:29:00,80.7,72.0,29.89,SSW,209,0.0,6.0,75,0.00,,---,0.00,VWS V14.01,2013-07-20 19:29:00,
2013-07-20 15:30:00,80.7,72.0,29.89,SSW,209,0.0,6.0,75,0.00,,---,0.00,VWS V14.01,2013-07-20 19:30:00,
2013-07-20 15:34:00,81.0,73.9,29.89,South,179,1.0,5.0,79,0.00,,---,0.00,VWS V14.01,2013-07-20 19:34:00,
2013-07-20 15:35:00,81.0,73.9,29.89,South,179,1.0,5.0,79,0.00,,---,0.00,VWS V14.01,2013-07-20 19:35:00,
2013-07-20 15:39:00,81.3,74.2,29.89,South,177,1.0,4.0,79,0.00,,---,0.00,VWS V14.01,2013-07-20 19:39:00,
2013-07-20 15:40:00,81.3,74.2,29.89,South,177,1.0,4.0,79,0.00,,---,0.00,VWS V14.01,2013-07-20 19:40:00,
2013-07-20 15:44:00,81.4,73.5,29.89,SW,223,3.0,5.0,77,0.00,,---,0.00,VWS V14.01,2013-07-20 19:44:00,
2013-07-20 15:45:00,81.4,73.5,29.89,SW,223,3.0,5.0,77,0.00,,---,0.00,VWS V14.01,2013-07-20 19:45:00,
2013-07-20 15:49:00,81.7,71.4,29.89,West,281,5.0,7.0,71,0.00,,---,0.00,VWS V14.01,2013-07-20 19:49:00,
2013-07-20 15:50:00,81.7,71.4,29.89,West,281,5.0,7.0,71,0.00,,---,0.00,VWS V14.01,2013-07-20 19:50:00,
2013-07-20 15:55:00,81.7,72.6,29.90,SW,217,5.0,5.0,74,0.00,,---,0.00,VWS V14.01,2013-07-20 19:55:00,
2013-07-20 15:59:00,81.3,72.6,29.89,SW,216,2.0,7.0,75,0.00,,---,0.00,VWS V14.01,2013-07-20 19:59:00,
2013-07-20 16:00:00,81.3,72.6,29.89,SW,216,2.0,7.0,75,0.00,,---,0.00,VWS V14.01,2013-07-20 20:00:00,
2013-07-20 16:04:00,81.1,72.8,29.89,SSW,204,0.0,5.0,76,0.00,,---,0.00,VWS V14.01,2013-07-20 20:04:00,
2013-07-20 16:05:00,81.1,72.8,29.89,SSW,204,0.0,5.0,76,0.00,,---,0.00,VWS V14.01,2013-07-20 20:05:00,
2013-07-20 16:09:00,81.5,73.6,29.89,West,263,2.0,5.0,77,0.00,,---,0.00,VWS V14.01,2013-07-20 20:09:00,
2013-07-20 16:10:00,81.5,73.6,29.89,West,263,2.0,5.0,77,0.00,,---,0.00,VWS V14.01,2013-07-20 20:10:00,
2013-07-20 16:14:00,82.0,74.5,29.89,West,271,4.0,7.0,78,0.00,,---,0.00,VWS V14.01,2013-07-20 20:14:00,
2013-07-20 16:15:00,82.0,74.5,29.89,West,271,4.0,7.0,78,0.00,,---,0.00,VWS V14.01,2013-07-20 20:15:00,
2013-07-20 16:19:00,82.4,74.5,29.89,SSE,167,5.0,8.0,77,0.00,,---,0.00,VWS V14.01,2013-07-20 20:19:00,
2013-07-20 16:20:00,82.4,74.5,29.89,SSE,167,5.0,8.0,77,0.00,,---,0.00,VWS V14.01,2013-07-20 20:20:00,
2013-07-20 16:24:00,82.7,74.8,29.89,West,263,7.0,13.0,77,0.00,,---,0.00,VWS V14.01,2013-07-20 20:24:00,
2013-07-20 16:25:00,82.7,74.8,29.89,West,263,7.0,13.0,77,0.00,,---,0.00,VWS V14.01,2013-07-20 20:25:00,
2013-07-20 16:29:00,82.6,73.9,29.89,West,269,5.0,11.0,75,0.00,,---,0.00,VWS V14.01,2013-07-20 20:29:00,
2013-07-20 16:30:00,82.6,73.9,29.89,West,269,5.0,11.0,75,0.00,,---,0.00,VWS V14.01,2013-07-20 20:30:00,
2013-07-20 16:34:00,82.3,74.4,29.89,West,265,5.0,11.0,77,0.00,,---,0.00,VWS V14.01,2013-07-20 20:34:00,
2013-07-20 16:35:00,82.3,74.4,29.89,West,265,5.0,11.0,77,0.00,,---,0.00,VWS V14.01,2013-07-20 20:35:00,
2013-07-20 16:40:00,81.8,74.3,29.88,West,263,4.0,9.0,78,0.00,,---,0.00,VWS V14.01,2013-07-20 20:40:00,
2013-07-20 16:45:00,81.2,72.5,29.88,SSW,200,4.0,11.0,75,0.00,,---,0.00,VWS V14.01,2013-07-20 20:45:00,
2013-07-20 16:49:00,80.7,72.8,29.89,West,278,1.0,7.0,77,0.00,,---,0.00,VWS V14.01,2013-07-20 20:49:00,
2013-07-20 16:50:00,80.7,72.8,29.89,West,278,1.0,7.0,77,0.00,,---,0.00,VWS V14.01,2013-07-20 20:50:00,
2013-07-20 16:54:00,80.7,72.0,29.89,SW,223,6.0,7.0,75,0.00,,---,0.00,VWS V14.01,2013-07-20 20:54:00,
2013-07-20 16:55:00,80.7,72.0,29.89,SW,223,6.0,7.0,75,0.00,,---,0.00,VWS V14.01,2013-07-20 20:55:00,
2013-07-20 16:59:00,80.5,71.5,29.88,SSW,204,3.0,11.0,74,0.00,,---,0.00,VWS V14.01,2013-07-20 20:59:00,
2013-07-20 17:00:00,80.5,71.5,29.88,SSW,204,3.0,11.0,74,0.00,,---,0.00,VWS V14.01,2013-07-20 21:00:00,
2013-07-20 17:04:00,80.5,71.1,29.88,SW,229,5.0,6.0,73,0.00,,---,0.00,VWS V14.01,2013-07-20 21:04:00,
2013-07-20 17:05:00,80.5,71.1,29.88,SW,229,5.0,6.0,73,0.00,,---,0.00,VWS V14.01,2013-07-20 21:05:00,
2013-07-20 17:10:00,80.4,70.6,29.88,South,186,4.0,10.0,72,0.00,,---,0.00,VWS V14.01,2013-07-20 21:10:00,
2013-07-20 17:14:00,80.5,71.1,29.88,SW,215,4.0,8.0,73,0.00,,---,0.00,VWS V14.01,2013-07-20 21:14:00,
2013-07-20 17:15:00,80.5,71.1,29.88,SW,215,4.0,8.0,73,0.00,,---,0.00,VWS V14.01,2013-07-20 21:15:00,
2013-07-20 17:19:00,80.7,71.2,29.88,West,263,3.0,5.0,73,0.00,,---,0.00,VWS V14.01,2013-07-20 21:19:00,
2013-07-20 17:20:00,80.7,71.2,29.88,West,263,3.0,5.0,73,0.00,,---,0.00,VWS V14.01,2013-07-20 21:20:00,
2013-07-20 17:25:00,80.8,71.3,29.88,SW,223,3.0,7.0,73,0.00,,---,0.00,VWS V14.01,2013-07-20 21:25:00,
2013-07-20 17:29:00,80.5,71.5,29.88,SW,225,4.0,6.0,74,0.00,,---,0.00,VWS V14.01,2013-07-20 21:29:00,
2013-07-20 17:30:00,80.5,71.5,29.88,SW,225,4.0,6.0,74,0.00,,---,0.00,VWS V14.01,2013-07-20 21:30:00,
2013-07-20 17:34:00,80.0,71.4,29.88,SSW,210,8.0,8.0,75,0.00,,---,0.00,VWS V14.01,2013-07-20 21:34:00,
2013-07-20 17:35:00,80.0,71.4,29.88,SSW,210,8.0,8.0,75,0.00,,---,0.00,VWS V14.01,2013-07-20 21:35:00,
2013-07-20 17:40:00,79.7,70.3,29.88,WSW,255,4.0,10.0,73,0.00,,---,0.00,VWS V14.01,2013-07-20 21:40:00,
2013-07-20 17:45:00,79.4,70.4,29.88,West,274,1.0,8.0,74,0.00,,---,0.00,VWS V14.01,2013-07-20 21:45:00,
2013-07-20 17:49:00,79.0,70.4,29.88,SSW,205,4.0,6.0,75,0.00,,---,0.00,VWS V14.01,2013-07-20 21:49:00,
2013-07-20 17:50:00,79.0,70.4,29.88,SSW,205,4.0,6.0,75,0.00,,---,0.00,VWS V14.01,2013-07-20 21:50:00,
2013-07-20 17:54:00,78.6,70.8,29.88,SSW,199,5.0,6.0,77,0.00,,---,0.00,VWS V14.01,2013-07-20 21:54:00,
2013-07-20 17:55:00,78.6,70.8,29.88,SSW,199,5.0,6.0,77,0.00,,---,0.00,VWS V14.01,2013-07-20 21:55:00,
2013-07-20 18:00:00,78.3,70.5,29.88,WSW,241,3.0,5.0,77,0.00,,---,0.00,VWS V14.01,2013-07-20 22:00:00,
2013-07-20 18:04:00,78.0,70.6,29.89,SW,222,3.0,6.0,78,0.00,,---,0.00,VWS V14.01,2013-07-20 22:04:00,
2013-07-20 18:05:00,78.0,70.6,29.89,SW,222,3.0,6.0,78,0.00,,---,0.00,VWS V14.01,2013-07-20 22:05:00,
2013-07-20 18:09:00,77.6,70.9,29.88,WSW,240,1.0,6.0,80,0.00,,---,0.00,VWS V14.01,2013-07-20 22:09:00,
2013-07-20 18:10:00,77.6,70.9,29.88,WSW,240,1.0,6.0,80,0.00,,---,0.00,VWS V14.01,2013-07-20 22:10:00,
2013-07-20 18:14:00,77.4,71.1,29.87,West,269,4.0,6.0,81,0.00,,---,0.00,VWS V14.01,2013-07-20 22:14:00,
2013-07-20 18:15:00,77.4,71.1,29.87,West,269,4.0,6.0,81,0.00,,---,0.00,VWS V14.01,2013-07-20 22:15:00,
2013-07-20 18:20:00,77.3,71.4,29.87,SW,215,2.0,5.0,82,0.00,,---,0.00,VWS V14.01,2013-07-20 22:20:00,
2013-07-20 18:24:00,77.1,71.2,29.87,SSW,211,2.0,4.0,82,0.00,,---,0.00,VWS V14.01,2013-07-20 22:24:00,
2013-07-20 18:25:00,77.1,71.2,29.87,SSW,211,2.0,4.0,82,0.00,,---,0.00,VWS V14.01,2013-07-20 22:25:00,
2013-07-20 18:29:00,77.0,71.1,29.87,SW,214,1.0,4.0,82,0.00,,---,0.00,VWS V14.01,2013-07-20 22:29:00,
2013-07-20 18:30:00,77.0,71.1,29.87,SW,214,1.0,4.0,82,0.00,,---,0.00,VWS V14.01,2013-07-20 22:30:00,
2013-07-20 18:35:00,76.9,71.3,29.86,SSW,209,1.0,5.0,83,0.00,,---,0.00,VWS V14.01,2013-07-20 22:35:00,
2013-07-20 18:39:00,76.9,71.7,29.87,SW,218,0.0,5.0,84,0.00,,---,0.00,VWS V14.01,2013-07-20 22:39:00,
2013-07-20 18:40:00,76.9,71.7,29.87,SW,218,0.0,5.0,84,0.00,,---,0.00,VWS V14.01,2013-07-20 22:40:00,
2013-07-20 18:44:00,76.8,71.6,29.87,SW,217,0.0,3.0,84,0.00,,---,0.00,VWS V14.01,2013-07-20 22:44:00,
2013-07-20 18:45:00,76.8,71.6,29.87,SW,217,0.0,3.0,84,0.00,,---,0.00,VWS V14.01,2013-07-20 22:45:00,
2013-07-20 18:50:00,76.7,71.9,29.88,WSW,240,4.0,4.0,85,0.00,,---,0.00,VWS V14.01,2013-07-20 22:50:00,
2013-07-20 18:54:00,76.7,71.9,29.88,SW,227,2.0,7.0,85,0.00,,---,0.00,VWS V14.01,2013-07-20 22:54:00,
2013-07-20 18:55:00,76.7,71.9,29.88,SW,227,2.0,7.0,85,0.00,,---,0.00,VWS V14.01,2013-07-20 22:55:00,
2013-07-20 18:59:00,76.5,71.7,29.87,SW,230,5.0,6.0,85,0.00,,---,0.00,VWS V14.01,2013-07-20 22:59:00,
2013-07-20 19:00:00,76.5,71.7,29.87,SW,230,5.0,6.0,85,0.00,,---,0.00,VWS V14.01,2013-07-20 23:00:00,
2013-07-20 19:05:00,76.4,71.9,29.88,SSW,208,2.0,6.0,86,0.00,,---,0.00,VWS V14.01,2013-07-20 23:05:00,
2013-07-20 19:10:00,76.3,71.8,29.88,SSW,204,3.0,5.0,86,0.00,,---,0.00,VWS V14.01,2013-07-20 23:10:00,
2013-07-20 19:15:00,76.3,71.8,29.88,SSW,202,3.0,7.0,86,0.00,,---,0.00,VWS V14.01,2013-07-20 23:15:00,
2013-07-20 19:19:00,76.2,71.7,29.88,WSW,246,1.0,7.0,86,0.00,,---,0.00,VWS V14.01,2013-07-20 23:19:00,
2013-07-20 19:20:00,76.2,71.7,29.88,WSW,246,1.0,7.0,86,0.00,,---,0.00,VWS V14.01,2013-07-20 23:20:00,
2013-07-20 19:25:00,76.1,71.9,29.87,SSW,193,3.0,4.0,87,0.00,,---,0.00,VWS V14.01,2013-07-20 23:25:00,
2013-07-20 19:29:00,75.9,71.8,29.88,South,182,1.0,5.0,87,0.00,,---,0.00,VWS V14.01,2013-07-20 23:29:00,
2013-07-20 19:30:00,75.9,71.8,29.88,South,182,1.0,5.0,87,0.00,,---,0.00,VWS V14.01,2013-07-20 23:30:00,
2013-07-20 19:34:00,75.8,72.0,29.88,South,177,2.0,5.0,88,0.00,,---,0.00,VWS V14.01,2013-07-20 23:34:00,
2013-07-20 19:35:00,75.8,72.0,29.88,South,177,2.0,5.0,88,0.00,,---,0.00,VWS V14.01,2013-07-20 23:35:00,
2013-07-20 19:39:00,75.8,72.3,29.88,SW,228,0.0,4.0,89,0.00,,---,0.00,VWS V14.01,2013-07-20 23:39:00,
2013-07-20 19:40:00,75.8,72.3,29.88,SW,228,0.0,4.0,89,0.00,,---,0.00,VWS V14.01,2013-07-20 23:40:00,
2013-07-20 19:44:00,75.7,72.2,29.89,SSW,197,0.0,4.0,89,0.00,,---,0.00,VWS V14.01,2013-07-20 23:44:00,
2013-07-20 19:45:00,75.7,72.2,29.89,SSW,197,0.0,4.0,89,0.00,,---,0.00,VWS V14.01,2013-07-20 23:45:00,
2013-07-20 19:49:00,75.6,72.1,29.89,South,182,0.0,4.0,89,0.00,,---,0.00,VWS V14.01,2013-07-20 23:49:00,
2013-07-20 19:50:00,75.6,72.1,29.89,South,182,0.0,4.0,89,0.00,,---,0.00,VWS V14.01,2013-07-20 23:50:00,
2013-07-20 19:54:00,75.5,72.0,29.90,South,189,2.0,3.0,89,0.00,,---,0.00,VWS V14.01,2013-07-20 23:54:00,
2013-07-20 19:55:00,75.5,72.0,29.90,South,189,2.0,3.0,89,0.00,,---,0.00,VWS V14.01,2013-07-20 23:55:00,
2013-07-20 19:59:00,75.3,71.8,29.90,West,264,1.0,4.0,89,0.00,,---,0.00,VWS V14.01,2013-07-20 23:59:00,
2013-07-20 20:00:00,75.3,71.8,29.90,West,264,1.0,4.0,89,0.00,,---,0.00,VWS V14.01,2013-07-21 00:00:00,
2013-07-20 20:04:00,75.2,72.1,29.90,West,263,0.0,2.0,90,0.00,,---,0.00,VWS V14.01,2013-07-21 00:04:00,
2013-07-20 20:05:00,75.2,72.1,29.90,West,263,0.0,2.0,90,0.00,,---,0.00,VWS V14.01,2013-07-21 00:05:00,
2013-07-20 20:09:00,74.9,71.8,29.90,West,261,3.0,3.0,90,0.00,,---,0.00,VWS V14.01,2013-07-21 00:09:00,
2013-07-20 20:10:00,74.9,71.8,29.90,West,261,3.0,3.0,90,0.00,,---,0.00,VWS V14.01,2013-07-21 00:10:00,
2013-07-20 20:14:00,74.8,71.7,29.90,West,261,0.0,3.0,90,0.00,,---,0.00,VWS V14.01,2013-07-21 00:14:00,
2013-07-20 20:15:00,74.8,71.7,29.90,West,261,0.0,3.0,90,0.00,,---,0.00,VWS V14.01,2013-07-21 00:15:00,
2013-07-20 20:20:00,74.6,71.5,29.90,West,259,0.0,4.0,90,0.00,,---,0.00,VWS V14.01,2013-07-21 00:20:00,
2013-07-20 20:24:00,74.4,71.6,29.90,West,259,0.0,3.0,91,0.00,,---,0.00,VWS V14.01,2013-07-21 00:24:00,
2013-07-20 20:25:00,74.4,71.6,29.90,West,259,0.0,3.0,91,0.00,,---,0.00,VWS V14.01,2013-07-21 00:25:00,
2013-07-20 20:29:00,74.3,71.5,29.90,West,259,0.0,1.0,91,0.00,,---,0.00,VWS V14.01,2013-07-21 00:29:00,
2013-07-20 20:30:00,74.3,71.5,29.90,West,259,0.0,1.0,91,0.00,,---,0.00,VWS V14.01,2013-07-21 00:30:00,
2013-07-20 20:34:00,74.0,71.2,29.90,West,259,0.0,1.0,91,0.00,,---,0.00,VWS V14.01,2013-07-21 00:34:00,
2013-07-20 20:35:00,74.0,71.2,29.90,West,259,0.0,1.0,91,0.00,,---,0.00,VWS V14.01,2013-07-21 00:35:00,
2013-07-20 20:39:00,73.9,71.4,29.91,SW,214,4.0,5.0,92,0.00,,---,0.00,VWS V14.01,2013-07-21 00:39:00,
2013-07-20 20:40:00,73.9,71.4,29.91,SW,214,4.0,5.0,92,0.00,,---,0.00,VWS V14.01,2013-07-21 00:40:00,
2013-07-20 20:44:00,73.8,71.3,29.91,West,269,0.0,4.0,92,0.00,,---,0.00,VWS V14.01,2013-07-21 00:44:00,
2013-07-20 20:45:00,73.8,71.3,29.91,West,269,0.0,4.0,92,0.00,,---,0.00,VWS V14.01,2013-07-21 00:45:00,
2013-07-20 20:49:00,73.7,71.2,29.91,West,269,1.0,2.0,92,0.00,,---,0.00,VWS V14.01,2013-07-21 00:49:00,
2013-07-20 20:50:00,73.7,71.2,29.91,West,269,1.0,2.0,92,0.00,,---,0.00,VWS V14.01,2013-07-21 00:50:00,
2013-07-20 20:55:00,73.5,71.0,29.91,West,269,0.0,2.0,92,0.00,,---,0.00,VWS V14.01,2013-07-21 00:55:00,
2013-07-20 20:59:00,73.3,70.8,29.91,SW,235,0.0,2.0,92,0.00,,---,0.00,VWS V14.01,2013-07-21 00:59:00,
2013-07-20 21:00:00,73.3,70.8,29.91,SW,235,0.0,2.0,92,0.00,,---,0.00,VWS V14.01,2013-07-21 01:00:00,
2013-07-20 21:04:00,73.3,71.2,29.91,SW,236,2.0,3.0,93,0.00,,---,0.00,VWS V14.01,2013-07-21 01:04:00,
2013-07-20 21:05:00,73.3,71.2,29.91,SW,236,2.0,3.0,93,0.00,,---,0.00,VWS V14.01,2013-07-21 01:05:00,
2013-07-20 21:09:00,73.1,71.0,29.91,SW,224,1.0,4.0,93,0.00,,---,0.00,VWS V14.01,2013-07-21 01:09:00,
2013-07-20 21:10:00,73.1,71.0,29.91,SW,224,1.0,4.0,93,0.00,,---,0.00,VWS V14.01,2013-07-21 01:10:00,
2013-07-20 21:14:00,73.0,70.9,29.91,SW,229,1.0,3.0,93,0.00,,---,0.00,VWS V14.01,2013-07-21 01:14:00,
2013-07-20 21:15:00,73.0,70.9,29.91,SW,229,1.0,3.0,93,0.00,,---,0.00,VWS V14.01,2013-07-21 01:15:00,
2013-07-20 21:19:00,72.9,70.8,29.91,SW,229,0.0,2.0,93,0.00,,---,0.00,VWS V14.01,2013-07-21 01:19:00,
2013-07-20 21:20:00,72.9,70.8,29.91,SW,229,0.0,2.0,93,0.00,,---,0.00,VWS V14.01,2013-07-21 01:20:00,
2013-07-20 21:24:00,72.9,70.8,29.91,SW,229,0.0,1.0,93,0.00,,---,0.00,VWS V14.01,2013-07-21 01:24:00,
2013-07-20 21:25:00,72.9,70.8,29.91,SW,229,0.0,1.0,93,0.00,,---,0.00,VWS V14.01,2013-07-21 01:25:00,
2013-07-20 21:29:00,72.7,70.6,29.91,SW,228,2.0,2.0,93,0.00,,---,0.00,VWS V14.01,2013-07-21 01:29:00,
2013-07-20 21:30:00,72.7,70.6,29.91,SW,228,2.0,2.0,93,0.00,,---,0.00,VWS V14.01,2013-07-21 01:30:00,
2013-07-20 21:35:00,72.5,70.7,29.92,SW,228,1.0,2.0,94,0.00,,---,0.00,VWS V14.01,2013-07-21 01:35:00,
2013-07-20 21:39:00,72.4,70.6,29.92,SW,228,0.0,3.0,94,0.00,,---,0.00,VWS V14.01,2013-07-21 01:39:00,
2013-07-20 21:40:00,72.4,70.6,29.92,SW,228,0.0,3.0,94,0.00,,---,0.00,VWS V14.01,2013-07-21 01:40:00,
2013-07-20 21:45:00,72.4,70.6,29.92,SW,234,2.0,2.0,94,0.00,,---,0.00,VWS V14.01,2013-07-21 01:45:00,
2013-07-20 21:49:00,72.4,70.6,29.92,SW,234,0.0,2.0,94,0.00,,---,0.00,VWS V14.01,2013-07-21 01:49:00,
2013-07-20 21:50:00,72.4,70.6,29.92,SW,234,0.0,2.0,94,0.00,,---,0.00,VWS V14.01,2013-07-21 01:50:00,
2013-07-20 21:54:00,72.3,70.5,29.92,SW,232,0.0,1.0,94,0.00,,---,0.00,VWS V14.01,2013-07-21 01:54:00,
2013-07-20 21:55:00,72.3,70.5,29.92,SW,232,0.0,1.0,94,0.00,,---,0.00,VWS V14.01,2013-07-21 01:55:00,
2013-07-20 21:59:00,72.3,70.8,29.92,SW,232,0.0,3.0,95,0.00,,---,0.00,VWS V14.01,2013-07-21 01:59:00,
2013-07-20 22:00:00,72.3,70.8,29.92,SW,232,0.0,3.0,95,0.00,,---,0.00,VWS V14.01,2013-07-21 02:00:00,
2013-07-20 22:05:00,72.3,70.5,29.92,SW,232,1.0,2.0,94,0.00,,---,0.00,VWS V14.01,2013-07-21 02:05:00,
2013-07-20 22:09:00,72.3,70.8,29.92,SW,232,0.0,2.0,95,0.00,,---,0.00,VWS V14.01,2013-07-21 02:09:00,
2013-07-20 22:10:00,72.3,70.8,29.92,SW,232,0.0,2.0,95,0.00,,---,0.00,VWS V14.01,2013-07-21 02:10:00,
2013-07-20 22:14:00,72.2,70.7,29.93,SW,232,0.0,0.0,95,0.00,,---,0.00,VWS V14.01,2013-07-21 02:14:00,
2013-07-20 22:15:00,72.2,70.7,29.93,SW,232,0.0,0.0,95,0.00,,---,0.00,VWS V14.01,2013-07-21 02:15:00,
2013-07-20 22:19:00,72.2,70.7,29.93,SW,232,0.0,1.0,95,0.00,,---,0.00,VWS V14.01,2013-07-21 02:19:00,
2013-07-20 22:20:00,72.2,70.7,29.93,SW,232,0.0,1.0,95,0.00,,---,0.00,VWS V14.01,2013-07-21 02:20:00,
2013-07-20 22:25:00,72.1,70.3,29.93,SW,232,0.0,0.0,94,0.00,,---,0.00,VWS V14.01,2013-07-21 02:25:00,
2013-07-20 22:30:00,71.9,70.4,29.93,SW,232,0.0,0.0,95,0.00,,---,0.00,VWS V14.01,2013-07-21 02:30:00,
2013-07-20 22:35:00,71.7,70.2,29.93,SW,232,0.0,1.0,95,0.00,,---,0.00,VWS V14.01,2013-07-21 02:35:00,
2013-07-20 22:40:00,71.5,70.0,29.93,SW,232,0.0,0.0,95,0.00,,---,0.00,VWS V14.01,2013-07-21 02:40:00,
2013-07-20 22:45:00,71.5,70.3,29.92,SW,232,0.0,1.0,96,0.00,,---,0.00,VWS V14.01,2013-07-21 02:45:00,
2013-07-20 22:49:00,71.3,70.1,29.92,SW,232,0.0,0.0,96,0.00,,---,0.00,VWS V14.01,2013-07-21 02:49:00,
2013-07-20 22:50:00,71.3,70.1,29.92,SW,232,0.0,0.0,96,0.00,,---,0.00,VWS V14.01,2013-07-21 02:50:00,
2013-07-20 22:54:00,71.2,70.0,29.92,SW,232,0.0,0.0,96,0.00,,---,0.00,VWS V14.01,2013-07-21 02:54:00,
2013-07-20 22:55:00,71.2,70.0,29.92,SW,232,0.0,0.0,96,0.00,,---,0.00,VWS V14.01,2013-07-21 02:55:00,
2013-07-20 22:59:00,71.0,69.8,29.92,SW,232,0.0,0.0,96,0.00,,---,0.00,VWS V14.01,2013-07-21 02:59:00,
2013-07-20 23:00:00,71.0,69.8,29.92,SW,232,0.0,0.0,96,0.00,,---,0.00,VWS V14.01,2013-07-21 03:00:00,
2013-07-20 23:04:00,70.9,69.7,29.92,SW,232,0.0,0.0,96,0.00,,---,0.00,VWS V14.01,2013-07-21 03:04:00,
2013-07-20 23:05:00,70.9,69.7,29.92,SW,232,0.0,0.0,96,0.00,,---,0.00,VWS V14.01,2013-07-21 03:05:00,
2013-07-20 23:10:00,70.8,69.6,29.93,SW,232,0.0,0.0,96,0.00,,---,0.00,VWS V14.01,2013-07-21 03:10:00,
2013-07-20 23:14:00,70.6,69.4,29.93,SW,232,0.0,1.0,96,0.00,,---,0.00,VWS V14.01,2013-07-21 03:14:00,
2013-07-20 23:15:00,70.6,69.4,29.93,SW,232,0.0,1.0,96,0.00,,---,0.00,VWS V14.01,2013-07-21 03:15:00,
2013-07-20 23:19:00,70.5,69.3,29.93,SW,232,0.0,1.0,96,0.00,,---,0.00,VWS V14.01,2013-07-21 03:19:00,
2013-07-20 23:20:00,70.5,69.3,29.93,SW,232,0.0,1.0,96,0.00,,---,0.00,VWS V14.01,2013-07-21 03:20:00,
2013-07-20 23:24:00,70.3,69.4,29.93,SW,232,0.0,1.0,97,0.00,,---,0.00,VWS V14.01,2013-07-21 03:24:00,
2013-07-20 23:25:00,70.3,69.4,29.93,SW,232,0.0,1.0,97,0.00,,---,0.00,VWS V14.01,2013-07-21 03:25:00,
2013-07-20 23:29:00,70.3,69.4,29.93,SW,232,0.0,1.0,97,0.00,,---,0.00,VWS V14.01,2013-07-21 03:29:00,
2013-07-20 23:30:00,70.3,69.4,29.93,SW,232,0.0,1.0,97,0.00,,---,0.00,VWS V14.01,2013-07-21 03:30:00,
2013-07-20 23:34:00,70.8,69.9,29.93,SW,232,0.0,0.0,97,0.00,,---,0.00,VWS V14.01,2013-07-21 03:34:00,
2013-07-20 23:35:00,70.8,69.9,29.93,SW,232,0.0,0.0,97,0.00,,---,0.00,VWS V14.01,2013-07-21 03:35:00,
2013-07-20 23:39:00,70.9,70.0,29.92,SW,232,1.0,3.0,97,0.00,,---,0.00,VWS V14.01,2013-07-21 03:39:00,
2013-07-20 23:40:00,70.9,70.0,29.92,SW,232,1.0,3.0,97,0.00,,---,0.00,VWS V14.01,2013-07-21 03:40:00,
2013-07-20 23:45:00,70.9,70.0,29.92,SW,232,0.0,1.0,97,0.00,,---,0.00,VWS V14.01,2013-07-21 03:45:00,
2013-07-20 23:49:00,70.8,69.9,29.92,SW,232,0.0,0.0,97,0.00,,---,0.00,VWS V14.01,2013-07-21 03:49:00,
2013-07-20 23:50:00,70.8,69.9,29.92,SW,232,0.0,0.0,97,0.00,,---,0.00,VWS V14.01,2013-07-21 03:50:00,
2013-07-20 23:54:00,70.7,69.8,29.92,SW,232,0.0,0.0,97,0.00,,---,0.00,VWS V14.01,2013-07-21 03:54:00,
2013-07-20 23:55:00,70.7,69.8,29.92,SW,232,0.0,0.0,97,0.00,,---,0.00,VWS V14.01,2013-07-21 03:55:00,
2013-07-20 23:59:00,70.5,69.6,29.92,SW,232,0.0,2.0,97,0.00,,---,0.00,VWS V14.01,2013-07-21 03:59:00,